This demonstration page uses our WeatherBlox Daily Observations layout. Learn more.

Hourly Observations for December 19, 2017

Temp ( °F °C ) Dew Point ( °F °C ) Humidity (%) Winds ( mph kmh ) Pressure ( in mb ) Visibility ( mi km ) Precip ( " mm )
12:54 am 00:54 Clear 34 1.1 28 -2.2 79 79 S 3 6 29.93 1014 10 16.0934 0 0
1:54 am 01:54 Clear 33 0.6 29 -1.7 85 85 S 8 13 29.94 1014 10 16.0934 0 0
2:54 am 02:54 Clear 29 -1.7 26 -3.3 89 89 SSE 3 6 29.96 1015 9 14.48406 0 0
3:54 am 03:54 Clear 32 0 27 -2.8 82 82 S 3 6 29.95 1014 9 14.48406 0 0
4:54 am 04:54 Clear 31 -0.6 27 -2.8 85 85 Calm 29.96 1015 9 14.48406 0 0
5:54 am 05:54 Clear 31 -0.6 27 -2.8 85 85 N 8 13 30 1016 9 14.48406 0 0
6:54 am 06:54 Clear 35 1.7 29 -1.7 78 78 N 9 15 30.03 1017 10 16.0934 0 0
7:54 am 07:54 Sunny 40 4.4 31 -0.6 70 70 NNE 12 19 30.08 1019 10 16.0934 0 0
8:54 am 08:54 Sunny 42 5.6 32 0 68 68 NNE 13 20 30.11 1020 10 16.0934 0 0
9:54 am 09:54 Sunny 45 7.2 29 -1.7 54 54 NNE 18 30 30.14 1021 10 16.0934 0 0
10:54 am 10:54 Sunny 46 7.8 25 -3.9 44 44 NNE 22 35 30.15 1021 10 16.0934 0 0
11:54 am 11:54 Sunny 47 8.3 24 -4.4 41 41 NNE 18 30 30.14 1021 10 16.0934 0 0
12:54 pm 12:54 Sunny 48 8.9 23 -5 37 37 NNE 15 24 30.13 1020 10 16.0934 0 0
1:54 pm 13:54 Sunny 49 9.4 22 -5.6 35 35 NNE 16 26 30.13 1020 10 16.0934 0 0
2:54 pm 14:54 Sunny 49 9.4 20 -6.7 32 32 NE 16 26 30.13 1020 10 16.0934 0 0
3:54 pm 15:54 Sunny 47 8.3 19 -7.2 33 33 NE 12 19 30.13 1020 10 16.0934 0 0
4:54 pm 16:54 Sunny 42 5.6 19 -7.2 40 40 NE 8 13 30.15 1021 10 16.0934 0 0
5:54 pm 17:54 Clear 36 2.2 16 -8.9 44 44 NE 7 11 30.18 1022 10 16.0934 0 0
6:54 pm 18:54 Clear 31 -0.6 16 -8.9 54 54 N 7 11 30.18 1022 10 16.0934 0 0
7:54 pm 19:54 Clear 31 -0.6 16 -8.9 54 54 N 12 19 30.17 1022 10 16.0934 0 0
8:54 pm 20:54 Clear 28 -2.2 16 -8.9 60 60 NNE 9 15 30.18 1022 10 16.0934 0 0
9:54 pm 21:54 Clear 28 -2.2 15 -9.4 58 58 NE 6 9 30.19 1022 10 16.0934 0 0
10:54 pm 22:54 Clear 31 -0.6 15 -9.4 52 52 NW 3 6 30.18 1022 10 16.0934 0 0
11:54 pm 23:54 Clear 28 -2.2 15 -9.4 58 58 N 7 11 30.18 1022 10 16.0934 0 0

Powered by AerisWeather